FW6178 Weather Reports


time (UTC)temp
C
wind
direction
speed
KPH
gust
KPH
rain 1hr
cm
rain 24hr
cm
rain mn
cm
humidity
%
barometer
mb
20260902014544 20 0 0.0 0.0 0.00 0.00 0.00 65 1009.8
20260902013048 20 294 0.0 1.6 0.00 0.00 0.00 63 1009.9
20260902011555 20 0 0.0 1.6 0.00 0.00 0.00 63 1009.8
20260902010107 20 297 0.0 3.2 0.00 0.00 0.00 62 1009.5
20260902004543 21 302 0.0 3.2 0.00 0.00 0.00 57 1009.5
20260902003053 22 0 1.6 3.2 0.00 0.00 0.00 51 1008.8
20260902001546 22 281 0.0 3.2 0.00 0.00 0.00 48 1008.7
20260902000050 22 264 3.2 9.7 0.00 0.00 0.00 49 1008.7
20260901234541 22 0 0.0 4.8 0.00 0.00 0.00 49 1009.1
20260901233059 23 278 0.0 4.8 0.00 0.00 0.00 50 1008.9
20260901231554 23 295 0.0 3.2 0.00 0.00 0.00 50 1009.0
20260901230041 24 309 0.0 3.2 0.00 0.00 0.00 49 1008.7
20260901224544 25 0 0.0 1.6 0.00 0.00 0.00 47 1009.1
20260901223052 25 0 0.0 1.6 0.00 0.00 0.00 50 1008.9
20260901221542 24 0 0.0 1.6 0.00 0.00 0.00 50 1008.3
20260901220043 24 0 0.0 0.0 0.00 0.00 0.00 52 1008.3
20260901214548 25 329 0.0 0.0 0.00 0.00 0.00 47 1008.6
20260901213048 23 328 1.6 4.8 0.00 0.00 0.00 46 1008.7
20260901211542 23 44 0.0 1.6 0.00 0.00 0.00 51 1008.9
20260901210042 22 0 0.0 6.4 0.00 0.00 0.00 50 1009.0
20260901204549 22 0 0.0 1.6 0.00 0.00 0.00 53 1009.1
20260901203044 22 61 0.0 4.8 0.00 0.00 0.00 51 1009.2
20260901201540 22 0 0.0 3.2 0.00 0.00 0.00 54 1009.2
20260901200046 21 22 1.6 8.0 0.00 0.00 0.00 58 1008.8
20260901194558 21 0 0.0 1.6 0.00 0.00 0.00 59 1009.8
20260901193051 21 0 0.0 4.8 0.00 0.00 0.00 55 1010.0
20260901191543 20 46 0.0 6.4 0.00 0.00 0.00 57 1010.2
20260901190047 20 49 1.6 8.0 0.00 0.00 0.00 55 1010.2
20260901184549 20 53 3.2 9.7 0.00 0.00 0.00 56 1010.5
20260901183046 19 63 3.2 9.7 0.00 0.00 0.00 59 1011.0
20260901181543 18 21 4.8 9.7 0.00 0.00 0.00 61 1011.3
20260901180044 18 72 6.4 11.3 0.00 0.00 0.00 63 1011.4
20260901174600 17 33 4.8 8.0 0.00 0.00 0.00 64 1011.7
20260901173041 17 43 4.8 11.3 0.00 0.00 0.00 69 1011.9
20260901171551 16 45 1.6 6.4 0.00 0.00 0.00 69 1011.8
20260901170129 16 49 0.0 6.4 0.00 0.00 0.00 72 1012.2
20260901164541 16 30 1.6 6.4 0.00 0.00 0.00 71 1012.3
20260901163047 15 49 1.6 6.4 0.00 0.00 0.00 74 1012.5
20260901161555 15 51 0.0 8.0 0.00 0.00 0.00 73 1012.5
20260901160048 15 139 0.0 1.6 0.00 0.00 0.00 75 1012.7
20260901154542 13 0 0.0 0.0 0.00 0.00 0.00 81 1012.9
20260901153100 12 0 0.0 0.0 0.00 0.00 0.00 85 1012.9
20260901151547 11 0 0.0 0.0 0.00 0.00 0.00 89 1013.0
20260901150043 10 0 0.0 1.6 0.00 0.00 0.00 89 1013.1
20260901144548 9 0 0.0 0.0 0.00 0.00 0.00 92 1013.0
20260901143051 8 0 0.0 0.0 0.00 0.00 0.00 93 1013.1
20260901141544 7 0 0.0 0.0 0.00 0.00 0.00 93 1013.1
20260901140110 6 0 0.0 0.0 0.00 0.00 0.00 92 1013.0
20260901134544 5 0 0.0 0.0 0.00 0.00 0.00 92 1013.0
20260901133043 5 0 0.0 0.0 0.00 0.00 0.00 91 1012.9
20260901131555 5 0 0.0 0.0 0.00 0.00 0.00 91 1012.9
20260901130057 5 0 0.0 0.0 0.00 0.00 0.00 91 1012.9
20260901124543 5 0 0.0 0.0 0.00 0.00 0.00 91 1013.1
20260901123044 5 0 0.0 0.0 0.00 0.00 0.00 91 1013.0
20260901121545 5 0 0.0 0.0 0.00 0.00 0.00 90 1012.9
20260901120048 6 0 0.0 0.0 0.00 0.00 0.00 90 1012.8
20260901114546 6 0 0.0 0.0 0.00 0.00 0.00 89 1012.9
20260901113043 6 0 0.0 0.0 0.00 0.00 0.00 90 1012.8
20260901111542 6 0 0.0 0.0 0.00 0.00 0.00 90 1012.9
20260901110050 6 0 0.0 0.0 0.00 0.00 0.00 89 1012.8
20260901104546 6 0 0.0 0.0 0.00 0.00 0.00 89 1012.8
20260901103044 6 0 0.0 0.0 0.00 0.00 0.00 88 1012.8
20260901101544 6 0 0.0 0.0 0.00 0.00 0.00 88 1012.7
20260901100049 6 0 0.0 0.0 0.00 0.00 0.00 89 1012.7
20260901094600 6 0 0.0 0.0 0.00 0.00 0.00 89 1012.7
20260901093050 6 0 0.0 0.0 0.00 0.00 0.00 88 1012.7
20260901091544 6 0 0.0 0.0 0.00 0.00 0.00 87 1012.7
20260901090044 7 0 0.0 0.0 0.00 0.00 0.00 88 1012.8
20260901084606 7 0 0.0 0.0 0.00 0.00 0.00 88 1012.9
20260901083051 7 0 0.0 0.0 0.00 0.00 0.00 87 1012.8
20260901081546 7 0 0.0 0.0 0.00 0.00 0.00 87 1012.7
20260901080041 7 0 0.0 0.0 0.00 0.00 0.00 85 1012.7
20260901074550 7 0 0.0 0.0 0.00 0.00 0.00 84 1012.5
20260901073048 8 0 0.0 0.0 0.00 0.00 0.00 85 1012.5
20260901071542 8 0 0.0 3.2 0.00 0.00 0.00 85 1012.7
20260901070048 8 0 0.0 0.0 0.00 0.00 0.00 83 1012.8
20260901064544 8 0 0.0 0.0 0.00 0.00 0.00 83 1012.8
20260901063042 8 0 0.0 0.0 0.00 0.00 0.00 84 1012.6
20260901061554 8 0 0.0 0.0 0.00 0.00 0.00 84 1012.8
20260901060051 9 0 0.0 0.0 0.00 0.00 0.00 83 1012.8
20260901054543 10 0 0.0 0.0 0.00 0.00 0.00 83 1013.0
20260901053059 10 0 0.0 0.0 0.00 0.00 0.00 81 1013.1
20260901051549 10 0 0.0 0.0 0.00 0.00 0.00 79 1013.0
20260901050049 11 0 0.0 0.0 0.00 0.00 0.00 80 1013.1
20260901044542 11 0 0.0 1.6 0.00 0.00 0.00 76 1013.1
20260901043042 11 0 0.0 0.0 0.00 0.00 0.00 76 1013.3
20260901041542 12 0 0.0 0.0 0.00 0.00 0.00 78 1013.2
20260901040048 12 0 0.0 0.0 0.00 0.00 0.00 76 1013.2
20260901034542 13 0 0.0 0.0 0.00 0.00 0.00 74 1013.1
20260901033052 13 0 0.0 1.6 0.00 0.00 0.00 73 1013.0
20260901031606 14 0 0.0 0.0 0.00 0.00 0.00 70 1013.0
20260901030042 15 0 0.0 0.0 0.00 0.00 0.00 69 1012.8
20260901024543 16 0 0.0 0.0 0.00 0.00 0.00 66 1012.6
20260901023044 17 0 0.0 0.0 0.00 0.00 0.00 60 1012.5
20260901021545 18 0 0.0 0.0 0.00 0.00 0.00 57 1012.5
20260901020043 20 0 0.0 1.6 0.00 0.00 0.00 52 1012.6